Location: Callao
(39.8979°N, 113.7141°W)
Time: 09:25:24
(UTC+00:00)

ISS - Visible Passes

Search period start: 27 February 2021 00:00
Search period end: 09 March 2021 00:00
Orbit: 417 x 422 km, 51.6° (Epoch: 27 February)

Date Brightness Start Highest point End Pass type
(mag) Time Alt. Az. Time Alt. Az. Time Alt. Az.
27 Feb -0.4 11:37:00 11° NE 11:37:00 11° NE 11:37:07 10° NE visible
27 Feb -1.4 13:09:57 10° NW 13:11:30 13° N 13:13:12 10° NNE visible
28 Feb -1.4 12:24:20 15° N 12:24:20 15° N 12:25:54 10° NNE visible
01 Mar -1.2 13:12:50 10° NNW 13:13:57 11° N 13:15:03 10° NNE visible
02 Mar -1.1 12:25:57 12° N 12:26:09 12° N 12:27:28 10° NNE visible
03 Mar -1.1 13:14:46 10° NNW 13:16:20 13° N 13:17:55 10° NE visible
04 Mar -1.1 12:27:29 10° NNW 12:28:33 12° N 12:29:47 10° NNE visible
05 Mar -0.6 11:41:47 10° NNE 11:41:47 10° NNE 11:41:51 10° NNE visible
05 Mar -1.4 13:16:10 10° NNW 13:18:36 18° NNE 13:21:02 10° ENE visible
06 Mar -1.1 12:29:03 11° NNW 12:30:51 15° NNE 12:32:51 10° NE visible
07 Mar -0.8 11:43:24 12° NNE 11:43:24 12° NNE 11:44:37 10° NE visible
07 Mar -2.3 13:17:32 10° NW 13:20:38 34° NNE 13:23:44 10° E visible
08 Mar -1.7 12:30:46 13° NNW 12:32:57 24° NNE 12:35:46 10° E visible
